Regional Weather Roundup
Issued by NWS

Home | Current Version | Previous Version | Text Only | Print | Product List | Glossary Off
Versions: 1 2 3 4 5 6 7 8 9 10 11 12 13 14 15 16 17 18 19 20 21 22 23 24 25 26 27 28 29 30 31 32 33 34 35 36 37 38 39 40 41 42 43 44 45 46 47 48 49 50

222
ASUS45 KBOU 271307
RWRCO

WEATHER ROUNDUP FOR COLORADO
NATIONAL WEATHER SERVICE DENVER/BOULDER CO
600 AM MST MON FEB 27 2017

NOTE: "FAIR" INDICATES FEW OR NO CLOUDS BELOW 12000 FEET WITH NO
SIGNIFICANT WEATHER AND/OR OBSTRUCTIONS TO VISIBILITY.

COZ001>005-013-030-031-271400-
...NORTHWEST COLORADO...

CITY           SKY/WX    TMP DP  RH WIND       PRES   REMARKS
CRAIG          CLOUDY    32  18  56 SW10      29.64F WCI  24
HAYDEN         MOCLDY    25  12  58 CALM      29.63F
MEEKER         CLOUDY    29  20  69 S3        29.65F
MOUNT WERNER   NOT AVBL
STEAMBOAT SPGS CLOUDY    15   8  73 CALM      29.65F
WALDEN         NOT AVBL
$$

COZ006>008-011-271400-
...WEST CENTRAL VALLEYS...

CITY           SKY/WX    TMP DP  RH WIND       PRES   REMARKS
GRAND JUNCTION CLOUDY    39  23  52 SE16G22   29.69F
MONTROSE       FAIR      32  13  45 E12       29.77F WCI  23
EAGLE          MOCLDY    20   8  60 E13       29.72F WCI   7
RIFLE          CLOUDY    32  18  56 VRB5      29.68F WCI  27
DELTA          CLOUDY    38  21  49 NW6       29.75F
NUCLA          CLOUDY    34  27  75 E6        29.82S WCI  29
$$

COZ017>023-064>068-271400-
...SOUTHWEST COLORADO...

CITY           SKY/WX    TMP DP  RH WIND       PRES   REMARKS
DURANGO        LGT SNOW  28  21  75 N5        29.86R WCI  23
CORTEZ         CLOUDY    33  23  66 S6        29.83F WCI  28
PAGOSA SPRINGS LGT SNOW  24  23  96 CALM      29.87R
TELLURIDE      FAIR      24  14  64 NE3       29.76S
WOLF CREEK PAS HVY SNOW  10  10 100 S24G37    29.79S VSB 1/4 WCI -10
$$

COZ009-010-012-014-032>034-037-058>063-271400-
...CENTRAL COLORADO...

CITY           SKY/WX    TMP DP  RH WIND       PRES   REMARKS
ASPEN          CLOUDY    19  10  68 W3        29.69F
BUENA VISTA    FAIR      23   5  46 SE14      29.74S WCI  10
COPPER MTN     MOCLDY    14   3  62 MISG      29.66S
BERTHOUD PASS  FAIR       5  -4  66 W32G55    29.57S WCI -20
COTTONWOOD PAS FAIR      23   3  42 NW6       29.71S WCI  16
GUNNISON       FAIR       2  -3  80 CALM      29.84S
KREMMLING      FAIR      19  10  68 CALM      29.71F
LEADVILLE      FAIR       2  -6  69 S5        29.68S WCI  -8
MONARCH PASS   CLOUDY     7   3  85 SW26      29.80S WCI -16
SALIDA         FAIR      26   9  47 SW13G21   29.84S WCI  15
SUNLIGHT       NOT AVBL
WILKERSON PASS FAIR       9   1  72 SW15G23   29.66F WCI  -8
$$

COZ069>075-271400-
...SAN LUIS VALLEY/SANGRE DE CRISTO MOUNTAINS...

CITY           SKY/WX    TMP DP  RH WIND       PRES   REMARKS
ALAMOSA        FAIR      25  19  78 S14       29.80F WCI  13
LA VETA PASS   FAIR      18  12  79 S26G47    29.75R WCI  -1
SAGUACHE       FAIR      12   3  67 NW10      29.83S WCI  -1
$$

COZ035-036-038>040-271400-
...NORTHERN COLORADO FRONT RANGE...

CITY           SKY/WX    TMP DP  RH WIND       PRES   REMARKS
DENVER INTL AP FAIR      20   6  55 S14       29.68F WCI   7
DMNS CITY PARK   N/A     19   8  61 E3        29.69S
AURORA         PTCLDY    24   4  42 CALM      29.68S
FRONT RANGE AP NOT AVBL
ERIE MUNI ARPT FAIR      17  13  82 SW3       29.69S
BOULDER MUN AP FAIR      21  14  73 CALM      29.68S
CENTENNIAL     FAIR      24   7  48 S8        29.67S WCI  15
BROOMFIELD     PTCLDY    19  12  73 CALM      29.68S
FORT COLLINS   FAIR      14  11  87 CALM      29.69F
LONGMONT       NOT AVBL
$$

COZ041-046-047-076>085-087-088-271400-
...PIKES PEAK/PALMER DIVIDE AND SOUTHERN FOOTHILLS...

CITY           SKY/WX    TMP DP  RH WIND       PRES   REMARKS
COLO. SPRINGS  FAIR      21   0  39 W3        29.70R
A. F. ACADEMY  FAIR      20  -1  38 SE7       29.68R WCI  12
SCHRIEVER AFB  FAIR      21   0  39 N8        29.71R WCI  12
ELLICOTT       NOT AVBL
FALCON         FAIR      19   0  42 N6        29.70S WCI  11
FORT CARSON    FAIR      19  -1  43 N6        29.69S WCI  10
LIMON          FAIR       6   2  83 CALM      29.73S
MONUMENT HILL  FAIR      23   7  50 SW14      29.69S WCI  11
TRINIDAD       FAIR      17   2  51 W8        29.74S WCI   7
$$

COZ042>045-048>051-090-091-271400-
...NORTHEAST COLORADO...

CITY           SKY/WX    TMP DP  RH WIND       PRES   REMARKS
GREELEY ARPT   FAIR      11   7  84 CALM      29.72S
AKRON          FAIR      19  10  68 S9        29.71F WCI   8
BURLINGTON     FAIR      21  15  78 S15       29.76S WCI   8
WRAY           NOT AVBL
STERLING       FAIR      14  10  85 S7        29.71F WCI   4
HOLYOKE        FAIR      19  14  79 S7        29.76F WCI  10
FORT MORGAN    FAIR      15  11  84 SW3       29.72F
$$

COZ086-089-092>099-271400-
...SOUTHEAST COLORADO...

CITY           SKY/WX    TMP DP  RH WIND       PRES   REMARKS
PUEBLO         FAIR      12  -1  56 VRB3      29.73S
LA JUNTA       FAIR      19   8  62 S3        29.76S
LAMAR          FAIR      10   5  80 W3        29.76S
SPRINGFIELD      N/A     18   8  65 W7        29.75S WCI   9
$$




USA.gov is the U.S. government's official web portal to all federal, state and local government web resources and services.